Location: Unspecified
(0.0000°N, 0.0000°E)
Time: 19:54:57

JUGNU - Pass Details

Date: 12 December 2017
Orbit: 836 x 864 km, 20.0° (Epoch: 22 March)

Event Time Altitude Azimuth Distance (km) Brightness Sun altitude
Exits shadow 05:20:41 - 318° (NW) 2,791 ? -7.6°
Reaches altitude 10° 05:23:02 10° 338° (NNW) 2,451 ? -7.0°
Maximum altitude 05:24:33 11° 353° (N) 2,384 ? -6.7°
Drops below altitude 10° 05:26:05 10° 8° (N) 2,455 ? -6.3°
Sets 05:31:00 0° 44° (NE) 3,399 ? -5.2°
